sat.trackr.live / text

‹ back to catalog

STARLINK-35599

NORAD 66102 · 2025-236S

PAYLOAD ACTIVE UNKNOWN

§ Identity

Operator
Country
US
Launch date
2025-10-19
Launch site
AFWTR
Launch vehicle
Mass (kg)
RCS (m²)

Purposes: comms

External: N2YO · Heavens-Above · Gunter

§ Orbital elements

Epoch: 2026-05-25T03:52:55.648416Z

Period
93.85 min
Inclination
53.1611°
Eccentricity
0.0001453
Mean motion
15.34413316 rev/d
Perigee alt
461.7 km
Apogee alt
463.7 km
Semi-major
6,840.8 km
B*
6.2324e-4
RAAN
108.6087°
Arg perigee
87.4704°
Mean anomaly
272.6465°
Rev number
3,459

§ Raw data

STARLINK-355991 66102U 25236S   26145.16175519  .00020748  00000+0  62324-3 0  99962 66102  53.1611 108.6087 0001453  87.4704 272.6465 15.34413316 34591

JSON: /api/v1/satellites/66102 · /tle

For live sub-satellite position, see the globe view (requires WebGL).

§ Visibility from observer

Set your observer location to see the next 7 days of passes ≥ 10°. The values pass through the URL so the page stays shareable.

No JS? Fill the form by hand. The geolocation button needs JavaScript.